| time (UTC) | temp F | wind direction | speed knots | gust knots | rain 1hr in | rain 24hr in | rain mn in | humidity % | barometer mb |
| 20260507182043 | 39 | 292 | 6.1 | 8.7 | 0.00 | 0.00 | 0.00 | 82 | 852.4 |
| 20260507181616 | 40 | 292 | 6.1 | 7.8 | 0.00 | 0.00 | 0.00 | 82 | 852.5 |
| 20260507181543 | 40 | 292 | 6.1 | 7.8 | 0.00 | 0.00 | 0.00 | 82 | 852.5 |
| 20260507181043 | 40 | 292 | 7.8 | 8.7 | 0.00 | 0.00 | 0.00 | 80 | 852.5 |
| 20260507180543 | 41 | 292 | 5.2 | 7.0 | 0.00 | 0.00 | 0.00 | 79 | 852.6 |
| 20260507180128 | 41 | 315 | 2.6 | 7.0 | 0.00 | 0.00 | 0.00 | 78 | 852.6 |
| 20260507180043 | 41 | 315 | 2.6 | 7.0 | 0.00 | 0.00 | 0.00 | 78 | 852.6 |
| 20260507175543 | 42 | 292 | 7.0 | 7.0 | 0.00 | 0.00 | 0.00 | 77 | 852.7 |
| 20260507175114 | 42 | 337 | 0.0 | 0.0 | 0.00 | 0.00 | 0.00 | 77 | 853.1 |
| 20260507175043 | 42 | 337 | 0.0 | 0.0 | 0.00 | 0.00 | 0.00 | 77 | 853.1 |
| 20260507174543 | 42 | 337 | 0.0 | 0.0 | 0.00 | 0.00 | 0.00 | 76 | 853.4 |
| 20260507174043 | 41 | 337 | 0.0 | 0.0 | 0.00 | 0.00 | 0.00 | 75 | 853.8 |
| 20260507173543 | 43 | 337 | 0.0 | 0.0 | 0.00 | 0.00 | 0.00 | 72 | 854.3 |
| 20260507173043 | 45 | 337 | 0.0 | 0.0 | 0.00 | 0.00 | 0.00 | 71 | 854.2 |
| 20260507172543 | 47 | 337 | 0.0 | 0.0 | 0.00 | 0.00 | 0.00 | 72 | 854.1 |
| 20260507172043 | 48 | 337 | 0.0 | 0.0 | 0.00 | 0.00 | 0.00 | 76 | 854.0 |
| 20260507171543 | 48 | 337 | 0.0 | 0.0 | 0.00 | 0.00 | 0.00 | 75 | 853.7 |
| 20260507171119 | 48 | 337 | 0.0 | 0.0 | 0.00 | 0.00 | 0.00 | 73 | 853.9 |
| 20260507171043 | 48 | 337 | 0.0 | 0.0 | 0.00 | 0.00 | 0.00 | 73 | 853.9 |
| 20260507170543 | 49 | 337 | 0.0 | 0.0 | 0.00 | 0.00 | 0.00 | 70 | 853.9 |
| 20260507170043 | 50 | 337 | 0.0 | 0.0 | 0.00 | 0.00 | 0.00 | 69 | 854.0 |
| 20260507165543 | 51 | 337 | 0.0 | 0.0 | 0.00 | 0.00 | 0.00 | 69 | 853.9 |
| 20260507165043 | 51 | 337 | 0.0 | 0.0 | 0.00 | 0.00 | 0.00 | 68 | 853.9 |
| 20260507164543 | 52 | 337 | 0.0 | 0.0 | 0.00 | 0.00 | 0.00 | 70 | 853.8 |
| 20260507164043 | 53 | 337 | 0.0 | 0.0 | 0.00 | 0.00 | 0.00 | 69 | 853.9 |
| 20260507163543 | 54 | 337 | 0.0 | 0.0 | 0.00 | 0.00 | 0.00 | 69 | 853.9 |
| 20260507163145 | 54 | 337 | 0.0 | 0.0 | 0.00 | 0.00 | 0.00 | 70 | 854.1 |
| 20260507163043 | 54 | 337 | 0.0 | 0.0 | 0.00 | 0.00 | 0.00 | 70 | 854.1 |
| 20260507162543 | 53 | 337 | 0.0 | 0.0 | 0.00 | 0.00 | 0.00 | 71 | 854.2 |
| 20260507162043 | 53 | 337 | 0.0 | 0.0 | 0.00 | 0.00 | 0.00 | 71 | 854.4 |
| 20260507161543 | 51 | 337 | 0.0 | 0.0 | 0.00 | 0.00 | 0.00 | 74 | 854.6 |
| 20260507161043 | 50 | 337 | 0.0 | 0.0 | 0.00 | 0.00 | 0.00 | 73 | 855.3 |
| 20260507160543 | 49 | 337 | 0.0 | 0.0 | 0.00 | 0.00 | 0.00 | 72 | 855.8 |
| 20260507160043 | 48 | 337 | 0.0 | 0.0 | 0.00 | 0.00 | 0.00 | 73 | 856.0 |
| 20260507155543 | 49 | 337 | 0.0 | 0.0 | 0.00 | 0.00 | 0.00 | 73 | 856.3 |
| 20260507155043 | 48 | 337 | 0.0 | 0.0 | 0.00 | 0.00 | 0.00 | 77 | 856.0 |
| 20260507154544 | 46 | 337 | 0.0 | 0.0 | 0.00 | 0.00 | 0.00 | 75 | 856.3 |
| 20260507154044 | 46 | 337 | 0.0 | 0.0 | 0.00 | 0.00 | 0.00 | 76 | 856.0 |
| 20260507153811 | 45 | 337 | 0.0 | 0.0 | 0.00 | 0.00 | 0.00 | 76 | 856.1 |
| 20260507153544 | 45 | 337 | 0.0 | 0.0 | 0.00 | 0.00 | 0.00 | 76 | 856.1 |
| 20260507153131 | 45 | 337 | 0.0 | 0.0 | 0.00 | 0.00 | 0.00 | 76 | 856.1 |
| 20260507153043 | 45 | 337 | 0.0 | 0.0 | 0.00 | 0.00 | 0.00 | 76 | 856.1 |
| 20260507152543 | 45 | 337 | 0.0 | 0.0 | 0.00 | 0.00 | 0.00 | 77 | 855.9 |
| 20260507152044 | 45 | 337 | 0.0 | 0.0 | 0.00 | 0.00 | 0.00 | 76 | 856.2 |
| 20260507151544 | 46 | 337 | 0.0 | 0.0 | 0.00 | 0.00 | 0.00 | 76 | 856.2 |
| 20260507151044 | 46 | 337 | 0.0 | 0.0 | 0.00 | 0.00 | 0.00 | 76 | 855.9 |
| 20260507150544 | 47 | 337 | 0.0 | 0.0 | 0.00 | 0.00 | 0.00 | 75 | 855.9 |
| 20260507150044 | 47 | 337 | 0.0 | 0.0 | 0.00 | 0.00 | 0.00 | 77 | 855.9 |
| 20260507145544 | 47 | 337 | 0.0 | 0.0 | 0.00 | 0.00 | 0.00 | 77 | 855.4 |
| 20260507145044 | 47 | 337 | 0.0 | 0.0 | 0.00 | 0.00 | 0.00 | 76 | 855.4 |
| 20260507144544 | 46 | 337 | 0.0 | 0.0 | 0.00 | 0.00 | 0.00 | 78 | 855.2 |
| 20260507144044 | 46 | 337 | 0.0 | 0.0 | 0.00 | 0.00 | 0.00 | 80 | 855.4 |
| 20260507143737 | 45 | 337 | 0.0 | 0.0 | 0.00 | 0.00 | 0.00 | 78 | 855.8 |
| 20260507143544 | 45 | 337 | 0.0 | 0.0 | 0.00 | 0.00 | 0.00 | 78 | 855.8 |
| 20260507143044 | 46 | 337 | 0.0 | 0.0 | 0.00 | 0.00 | 0.00 | 77 | 855.6 |
| 20260507142544 | 47 | 337 | 0.0 | 0.0 | 0.00 | 0.00 | 0.00 | 77 | 855.4 |
| 20260507142044 | 47 | 337 | 0.0 | 0.0 | 0.00 | 0.00 | 0.00 | 76 | 855.3 |
| 20260507141544 | 48 | 337 | 0.0 | 0.0 | 0.00 | 0.00 | 0.00 | 77 | 855.0 |
| 20260507141044 | 48 | 337 | 0.0 | 0.0 | 0.00 | 0.00 | 0.00 | 76 | 854.7 |
| 20260507140544 | 48 | 337 | 0.0 | 0.0 | 0.00 | 0.00 | 0.00 | 75 | 854.2 |
| 20260507140044 | 46 | 337 | 0.0 | 0.0 | 0.00 | 0.00 | 0.00 | 80 | 853.8 |
| 20260507135544 | 45 | 337 | 0.0 | 0.0 | 0.00 | 0.00 | 0.00 | 82 | 853.9 |
| 20260507135044 | 44 | 337 | 0.0 | 0.0 | 0.00 | 0.00 | 0.00 | 80 | 853.6 |
| 20260507134544 | 44 | 315 | 0.0 | 4.3 | 0.00 | 0.00 | 0.00 | 81 | 853.5 |
| 20260507134044 | 43 | 315 | 0.0 | 0.9 | 0.00 | 0.00 | 0.00 | 82 | 853.3 |
| 20260507133544 | 42 | 67 | 0.0 | 3.5 | 0.00 | 0.00 | 0.00 | 83 | 853.0 |
| 20260507133044 | 42 | 315 | 1.7 | 6.1 | 0.00 | 0.00 | 0.00 | 82 | 853.3 |
| 20260507132628 | 42 | 315 | 0.9 | 8.7 | 0.00 | 0.00 | 0.00 | 83 | 853.1 |
| 20260507132544 | 42 | 315 | 0.9 | 8.7 | 0.00 | 0.00 | 0.00 | 83 | 853.1 |
| 20260507132044 | 41 | 337 | 5.2 | 8.7 | 0.00 | 0.00 | 0.00 | 84 | 852.8 |
| 20260507131544 | 41 | 337 | 3.5 | 10.4 | 0.00 | 0.00 | 0.00 | 84 | 852.8 |
| 20260507131044 | 41 | 0 | 0.0 | 79.9 | 0.00 | 0.00 | 0.00 | 86 | 852.5 |
| 20260507130544 | 39 | 337 | 6.1 | 33.9 | 0.00 | 0.00 | 0.00 | 87 | 851.9 |
| 20260507130044 | 38 | 0 | 0.0 | 7.0 | 0.00 | 0.00 | 0.00 | 87 | 852.3 |
| 20260507125544 | 37 | 0 | 5.2 | 5.2 | 0.00 | 0.00 | 0.00 | 88 | 852.5 |
| 20260507125044 | 35 | 90 | 0.0 | 0.0 | 0.00 | 0.00 | 0.00 | 88 | 852.9 |
| 20260507124544 | 34 | 315 | 0.0 | 1.7 | 0.00 | 0.00 | 0.00 | 88 | 852.8 |
| 20260507124044 | 34 | 315 | 0.0 | 6.1 | 0.00 | 0.00 | 0.00 | 88 | 852.9 |
| 20260507123544 | 34 | 67 | 0.0 | 6.1 | 0.00 | 0.00 | 0.00 | 88 | 852.9 |
| 20260507123153 | 34 | 337 | 5.2 | 7.0 | 0.00 | 0.00 | 0.00 | 88 | 852.9 |
| 20260507123044 | 34 | 337 | 5.2 | 7.0 | 0.00 | 0.00 | 0.00 | 88 | 852.9 |
| 20260507122544 | 34 | 22 | 4.3 | 6.1 | 0.00 | 0.00 | 0.00 | 88 | 852.9 |
| 20260507122044 | 34 | 292 | 4.3 | 5.2 | 0.00 | 0.00 | 0.00 | 85 | 852.9 |
| 20260507121544 | 35 | 90 | 5.2 | 11.3 | 0.00 | 0.00 | 0.00 | 86 | 853.2 |
| 20260507121044 | 36 | 0 | 0.0 | 93.8 | 0.00 | 0.00 | 0.00 | 88 | 853.1 |
| 20260507120544 | 37 | 135 | 10.4 | 15.6 | 0.00 | 0.00 | 0.00 | 91 | 853.7 |
| 20260507120044 | 37 | 135 | 3.5 | 7.8 | 0.00 | 0.00 | 0.00 | 90 | 854.7 |
| 20260507115544 | 37 | 157 | 0.0 | 8.7 | 0.00 | 0.00 | 0.00 | 89 | 854.4 |
| 20260507115044 | 37 | 157 | 5.2 | 9.6 | 0.00 | 0.00 | 0.00 | 89 | 854.1 |
| 20260507114544 | 37 | 157 | 8.7 | 8.7 | 0.00 | 0.00 | 0.00 | 89 | 854.7 |
| 20260507114044 | 38 | 157 | 2.6 | 9.6 | 0.00 | 0.00 | 0.00 | 88 | 856.0 |
| 20260507113544 | 38 | 157 | 2.6 | 3.5 | 0.00 | 0.00 | 0.00 | 87 | 854.9 |
| 20260507113044 | 39 | 135 | 3.5 | 3.5 | 0.00 | 0.00 | 0.00 | 85 | 855.0 |
| 20260507112544 | 40 | 112 | 0.0 | 0.9 | 0.00 | 0.00 | 0.00 | 84 | 854.9 |
| 20260507112044 | 41 | 112 | 0.0 | 0.0 | 0.00 | 0.00 | 0.00 | 82 | 855.1 |
| 20260507111544 | 42 | 112 | 0.0 | 0.0 | 0.00 | 0.00 | 0.00 | 80 | 855.2 |
| 20260507111044 | 43 | 112 | 0.0 | 0.9 | 0.00 | 0.00 | 0.00 | 78 | 855.3 |
| 20260507110544 | 45 | 135 | 0.0 | 1.7 | 0.00 | 0.00 | 0.00 | 77 | 855.1 |
| 20260507110044 | 47 | 135 | 0.0 | 0.0 | 0.00 | 0.00 | 0.00 | 74 | 855.1 |
| 20260507105544 | 48 | 90 | 0.0 | 0.0 | 0.00 | 0.00 | 0.00 | 72 | 855.1 |
| 20260507105044 | 49 | 135 | 0.0 | 0.9 | 0.00 | 0.00 | 0.00 | 72 | 854.8 |
| 20260507104544 | 50 | 135 | 0.0 | 1.7 | 0.00 | 0.00 | 0.00 | 72 | 855.0 |
| 20260507104044 | 49 | 90 | 0.0 | 0.9 | 0.00 | 0.00 | 0.00 | 76 | 854.7 |
| 20260507103544 | 48 | 22 | 0.0 | 1.7 | 0.00 | 0.00 | 0.00 | 77 | 855.0 |
| 20260507103044 | 48 | 22 | 0.0 | 3.5 | 0.00 | 0.00 | 0.00 | 77 | 855.0 |
| 20260507102544 | 47 | 337 | 0.0 | 0.9 | 0.00 | 0.00 | 0.00 | 78 | 855.0 |
| 20260507102044 | 47 | 22 | 0.0 | 0.0 | 0.00 | 0.00 | 0.00 | 79 | 855.0 |
| 20260507101544 | 47 | 45 | 0.0 | 2.6 | 0.00 | 0.00 | 0.00 | 79 | 855.2 |
| 20260507101044 | 47 | 22 | 0.0 | 0.0 | 0.00 | 0.00 | 0.00 | 79 | 855.3 |
| 20260507100544 | 46 | 22 | 0.0 | 1.7 | 0.00 | 0.00 | 0.00 | 79 | 855.3 |
| 20260507100044 | 46 | 22 | 0.0 | 1.7 | 0.00 | 0.00 | 0.00 | 78 | 855.4 |
| 20260507095544 | 46 | 67 | 0.0 | 2.6 | 0.00 | 0.00 | 0.00 | 78 | 855.3 |
| 20260507095124 | 46 | 90 | 0.0 | 0.0 | 0.00 | 0.00 | 0.00 | 79 | 855.1 |
| 20260507095044 | 46 | 90 | 0.0 | 0.0 | 0.00 | 0.00 | 0.00 | 79 | 855.1 |
| 20260507094544 | 46 | 90 | 0.0 | 0.0 | 0.00 | 0.00 | 0.00 | 78 | 855.1 |
| 20260507094044 | 46 | 22 | 0.0 | 0.9 | 0.00 | 0.00 | 0.00 | 78 | 855.1 |
| 20260507093544 | 46 | 45 | 0.0 | 0.0 | 0.00 | 0.00 | 0.00 | 78 | 855.1 |
| 20260507093044 | 47 | 45 | 0.0 | 0.0 | 0.00 | 0.00 | 0.00 | 77 | 855.1 |
| 20260507092544 | 48 | 112 | 0.0 | 0.0 | 0.00 | 0.00 | 0.00 | 78 | 855.0 |
| 20260507092044 | 48 | 90 | 0.0 | 0.0 | 0.00 | 0.00 | 0.00 | 80 | 854.8 |
| 20260507091544 | 47 | 22 | 0.0 | 2.6 | 0.00 | 0.00 | 0.00 | 80 | 854.8 |
| 20260507091044 | 47 | 22 | 3.5 | 3.5 | 0.00 | 0.00 | 0.00 | 80 | 854.8 |
| 20260507090544 | 46 | 90 | 0.0 | 0.0 | 0.00 | 0.00 | 0.00 | 81 | 854.8 |
| 20260507090044 | 45 | 67 | 0.0 | 0.0 | 0.00 | 0.00 | 0.00 | 81 | 854.7 |
| 20260507085544 | 45 | 135 | 0.0 | 0.0 | 0.00 | 0.00 | 0.00 | 80 | 854.7 |
| 20260507085044 | 44 | 0 | 0.0 | 0.0 | 0.00 | 0.00 | 0.00 | 81 | 854.9 |
| 20260507084544 | 44 | 0 | 0.0 | 0.0 | 0.00 | 0.00 | 0.00 | 82 | 856.2 |
| 20260507084044 | 43 | 0 | 0.0 | 0.0 | 0.00 | 0.00 | 0.00 | 82 | 855.1 |
| 20260507083544 | 43 | 0 | 0.0 | 0.0 | 0.00 | 0.00 | 0.00 | 81 | 856.6 |
| 20260507083044 | 44 | 0 | 0.0 | 0.0 | 0.00 | 0.00 | 0.00 | 81 | 856.1 |
| 20260507082544 | 44 | 247 | 0.0 | 0.0 | 0.00 | 0.00 | 0.00 | 82 | 855.4 |
| 20260507082044 | 44 | 0 | 0.0 | 0.0 | 0.00 | 0.00 | 0.00 | 83 | 855.8 |
| 20260507081544 | 43 | 292 | 75.6 | 75.6 | 0.00 | 0.00 | 0.00 | 83 | 855.0 |
| 20260507081044 | 42 | 0 | 0.0 | 0.0 | 0.00 | 0.00 | 0.00 | 83 | 855.1 |
| 20260507080544 | 42 | 135 | 0.0 | 0.0 | 0.00 | 0.00 | 0.00 | 82 | 854.9 |
| 20260507080047 | 42 | 135 | 0.0 | 0.0 | 0.00 | 0.00 | 0.00 | 83 | 854.1 |
| 20260507075545 | 41 | 292 | 0.0 | 0.0 | 0.00 | 0.00 | 0.00 | 84 | 855.4 |
| 20260507075045 | 41 | 0 | 0.0 | 10.4 | 0.00 | 0.00 | 0.00 | 84 | 853.8 |
| 20260507074545 | 41 | 0 | 0.0 | 0.0 | 0.00 | 0.00 | 0.00 | 85 | 855.3 |
| 20260507074045 | 40 | 270 | 0.0 | 0.0 | 0.00 | 0.00 | 0.00 | 84 | 853.7 |
| 20260507073545 | 39 | 0 | 0.0 | 0.0 | 0.00 | 0.00 | 0.00 | 83 | 856.5 |
| 20260507073046 | 40 | 0 | 0.0 | 0.0 | 0.00 | 0.00 | 0.00 | 83 | 853.8 |
| 20260507072546 | 41 | 0 | 0.0 | 0.0 | 0.00 | 0.00 | 0.00 | 82 | 855.9 |
| 20260507072046 | 42 | 0 | 0.0 | 0.0 | 0.00 | 0.00 | 0.00 | 83 | 854.7 |
| 20260507071546 | 42 | 0 | 0.0 | 36.5 | 0.00 | 0.00 | 0.00 | 84 | 854.5 |
| 20260507071045 | 41 | 90 | 0.0 | 0.0 | 0.00 | 0.00 | 0.00 | 84 | 854.3 |
| 20260507070547 | 41 | 0 | 0.0 | 74.7 | 0.00 | 0.00 | 0.00 | 83 | 852.8 |
| 20260507070046 | 40 | 0 | 0.0 | 0.0 | 0.00 | 0.00 | 0.00 | 82 | 854.9 |
| 20260507065654 | 40 | 0 | 0.0 | 0.0 | 0.00 | 0.00 | 0.00 | 81 | 853.6 |
| 20260507065546 | 40 | 0 | 0.0 | 0.0 | 0.00 | 0.00 | 0.00 | 81 | 853.6 |
| 20260507065046 | 42 | 0 | 0.0 | 0.0 | 0.00 | 0.00 | 0.00 | 81 | 854.7 |
| 20260507064546 | 43 | 0 | 0.0 | 0.0 | 0.00 | 0.00 | 0.00 | 80 | 853.3 |
| 20260507064046 | 44 | 0 | 0.0 | 0.0 | 0.00 | 0.00 | 0.00 | 79 | 854.9 |
| 20260507063546 | 45 | 0 | 0.0 | 0.0 | 0.00 | 0.00 | 0.00 | 78 | 852.8 |
| 20260507063046 | 45 | 0 | 0.0 | 0.0 | 0.00 | 0.00 | 0.00 | 80 | 854.2 |
| 20260507062547 | 42 | 0 | 0.0 | 0.0 | 0.00 | 0.00 | 0.00 | 83 | 853.7 |
| 20260507062046 | 41 | 0 | 0.0 | 0.0 | 0.00 | 0.00 | 0.00 | 83 | 851.7 |
| 20260507061546 | 41 | 0 | 0.0 | 0.0 | 0.00 | 0.00 | 0.00 | 83 | 854.6 |
| 20260507061047 | 41 | 0 | 0.0 | 0.0 | 0.00 | 0.00 | 0.00 | 83 | 850.8 |
| 20260507060546 | 41 | 0 | 0.0 | 0.0 | 0.00 | 0.00 | 0.00 | 83 | 852.9 |
| 20260507060046 | 40 | 0 | 0.0 | 0.0 | 0.00 | 0.00 | 0.00 | 83 | 853.9 |
| 20260507055546 | 40 | 0 | 0.0 | 0.0 | 0.00 | 0.00 | 0.00 | 83 | 853.0 |
| 20260507055046 | 39 | 0 | 0.0 | 0.0 | 0.00 | 0.00 | 0.00 | 83 | 854.9 |
| 20260507054546 | 39 | 0 | 0.0 | 0.0 | 0.00 | 0.00 | 0.00 | 82 | 852.3 |
| 20260507054047 | 39 | 0 | 0.0 | 0.0 | 0.00 | 0.00 | 0.00 | 83 | 853.4 |
| 20260507053546 | 37 | 0 | 0.0 | 0.0 | 0.00 | 0.00 | 0.00 | 84 | 853.9 |
| 20260507053046 | 36 | 0 | 0.0 | 0.0 | 0.00 | 0.00 | 0.00 | 84 | 851.5 |
| 20260507052546 | 35 | 0 | 0.0 | 0.0 | 0.00 | 0.00 | 0.00 | 83 | 853.4 |
| 20260507052046 | 35 | 0 | 0.0 | 0.0 | 0.00 | 0.00 | 0.00 | 83 | 853.5 |
| 20260507051546 | 35 | 0 | 0.0 | 0.0 | 0.00 | 0.00 | 0.00 | 83 | 855.5 |
| 20260507051046 | 35 | 0 | 0.0 | 0.0 | 0.00 | 0.00 | 0.00 | 83 | 851.6 |
| 20260507050546 | 36 | 0 | 0.0 | 0.0 | 0.00 | 0.00 | 0.00 | 85 | 854.3 |
| 20260507050046 | 36 | 0 | 0.0 | 0.0 | 0.00 | 0.00 | 0.00 | 85 | 853.1 |
| 20260507045546 | 36 | 0 | 0.0 | 0.0 | 0.00 | 0.00 | 0.00 | 86 | 854.8 |
| 20260507045046 | 36 | 0 | 0.0 | 0.0 | 0.00 | 0.00 | 0.00 | 86 | 851.3 |
| 20260507044546 | 36 | 0 | 0.0 | 0.0 | 0.00 | 0.00 | 0.00 | 86 | 853.8 |
| 20260507044046 | 36 | 0 | 0.0 | 0.0 | 0.00 | 0.00 | 0.00 | 86 | 852.9 |
| 20260507043546 | 35 | 0 | 0.0 | 0.0 | 0.00 | 0.00 | 0.00 | 86 | 852.5 |
| 20260507043046 | 35 | 0 | 0.0 | 0.0 | 0.00 | 0.00 | 0.00 | 86 | 855.2 |
| 20260507042546 | 34 | 0 | 0.0 | 0.0 | 0.00 | 0.00 | 0.00 | 87 | 853.8 |
| 20260507042046 | 33 | 157 | 62.6 | 62.6 | 0.00 | 0.00 | 0.00 | 88 | 855.4 |
| 20260507041546 | 33 | 315 | 0.0 | 0.0 | 0.00 | 0.00 | 0.00 | 88 | 854.2 |
| 20260507041046 | 32 | 315 | 0.0 | 0.0 | 0.00 | 0.00 | 0.00 | 88 | 855.1 |
| 20260507040547 | 32 | 315 | 0.0 | 0.0 | 0.00 | 0.00 | 0.00 | 88 | 855.6 |
| 20260507040046 | 32 | 315 | 0.0 | 0.0 | 0.00 | 0.00 | 0.00 | 89 | 853.5 |
| 20260507035546 | 32 | 315 | 0.0 | 0.0 | 0.00 | 0.00 | 0.00 | 89 | 856.1 |
| 20260507035050 | 32 | 315 | 0.0 | 0.0 | 0.00 | 0.00 | 0.00 | 89 | 852.7 |
| 20260507034546 | 32 | 315 | 0.0 | 0.0 | 0.00 | 0.00 | 0.00 | 89 | 855.1 |
| 20260507034046 | 32 | 315 | 0.0 | 0.0 | 0.00 | 0.00 | 0.00 | 89 | 854.4 |
| 20260507033546 | 32 | 315 | 0.0 | 0.0 | 0.00 | 0.00 | 0.00 | 89 | 853.6 |
| 20260507033046 | 32 | 315 | 0.0 | 0.0 | 0.00 | 0.00 | 0.00 | 89 | 852.5 |
| 20260507032546 | 32 | 315 | 0.0 | 0.0 | 0.00 | 0.00 | 0.00 | 89 | 852.5 |
| 20260507032046 | 33 | 315 | 0.0 | 0.0 | 0.00 | 0.00 | 0.00 | 89 | 852.6 |
| 20260507031546 | 33 | 315 | 0.0 | 0.0 | 0.00 | 0.00 | 0.00 | 89 | 852.4 |
| 20260507031046 | 33 | 315 | 0.0 | 0.0 | 0.00 | 0.00 | 0.00 | 89 | 852.6 |
| 20260507030546 | 33 | 315 | 0.0 | 0.0 | 0.00 | 0.00 | 0.00 | 89 | 852.4 |
| 20260507030046 | 33 | 315 | 0.0 | 0.0 | 0.00 | 0.00 | 0.00 | 89 | 852.4 |
| 20260507025546 | 33 | 315 | 0.0 | 0.0 | 0.00 | 0.00 | 0.00 | 89 | 852.4 |
| 20260507025046 | 33 | 315 | 0.0 | 0.0 | 0.00 | 0.00 | 0.00 | 90 | 852.3 |
| 20260507024546 | 33 | 315 | 0.0 | 0.0 | 0.00 | 0.00 | 0.00 | 90 | 852.1 |
| 20260507024046 | 33 | 315 | 0.0 | 1.7 | 0.00 | 0.00 | 0.00 | 90 | 852.0 |
| 20260507023649 | 33 | 315 | 0.0 | 0.0 | 0.00 | 0.00 | 0.00 | 91 | 852.1 |
| 20260507023546 | 33 | 315 | 0.0 | 0.0 | 0.00 | 0.00 | 0.00 | 91 | 852.1 |
| 20260507023046 | 33 | 315 | 0.0 | 1.7 | 0.00 | 0.00 | 0.00 | 91 | 852.1 |
| 20260507022546 | 33 | 0 | 0.0 | 0.0 | 0.00 | 0.00 | 0.00 | 91 | 851.8 |
| 20260507022046 | 33 | 292 | 0.0 | 3.5 | 0.00 | 0.00 | 0.00 | 91 | 851.8 |
| 20260507021546 | 33 | 292 | 0.9 | 3.5 | 0.00 | 0.00 | 0.00 | 91 | 851.6 |
| 20260507021046 | 33 | 292 | 0.0 | 0.9 | 0.00 | 0.00 | 0.00 | 91 | 851.8 |
| 20260507020547 | 33 | 292 | 0.9 | 1.7 | 0.00 | 0.00 | 0.00 | 91 | 851.5 |
| 20260507020046 | 33 | 292 | 1.7 | 3.5 | 0.00 | 0.00 | 0.00 | 91 | 851.1 |
| 20260507015546 | 33 | 292 | 2.6 | 3.5 | 0.00 | 0.00 | 0.00 | 92 | 850.8 |
| 20260507015046 | 33 | 292 | 1.7 | 3.5 | 0.00 | 0.00 | 0.00 | 92 | 850.2 |
| 20260507014546 | 33 | 292 | 0.9 | 7.8 | 0.00 | 0.00 | 0.00 | 92 | 850.1 |
| 20260507014046 | 33 | 292 | 7.8 | 7.8 | 0.00 | 0.00 | 0.00 | 92 | 849.4 |
| 20260507013546 | 33 | 292 | 6.1 | 7.0 | 0.00 | 0.00 | 0.00 | 91 | 849.3 |
| 20260507013046 | 33 | 315 | 1.7 | 3.5 | 0.00 | 0.00 | 0.00 | 91 | 849.9 |
| 20260507012547 | 33 | 315 | 2.6 | 6.1 | 0.00 | 0.00 | 0.00 | 91 | 849.6 |
| 20260507012046 | 33 | 337 | 4.3 | 7.0 | 0.00 | 0.00 | 0.00 | 92 | 849.5 |
| 20260507011546 | 33 | 315 | 5.2 | 5.2 | 0.00 | 0.00 | 0.00 | 92 | 849.1 |
| 20260507011046 | 33 | 315 | 5.2 | 8.7 | 0.00 | 0.00 | 0.00 | 92 | 848.5 |
| 20260507010546 | 33 | 0 | 0.0 | 6.1 | 0.00 | 0.00 | 0.00 | 93 | 848.4 |
| 20260507010046 | 33 | 315 | 5.2 | 5.2 | 0.00 | 0.00 | 0.00 | 93 | 848.0 |
| 20260507005546 | 33 | 315 | 5.2 | 6.1 | 0.00 | 0.00 | 0.00 | 93 | 848.1 |
| 20260507005046 | 33 | 315 | 5.2 | 6.1 | 0.00 | 0.00 | 0.00 | 93 | 847.8 |
| 20260507004546 | 33 | 315 | 5.2 | 5.2 | 0.00 | 0.00 | 0.00 | 93 | 847.8 |
| 20260507004046 | 33 | 315 | 5.2 | 6.1 | 0.00 | 0.00 | 0.00 | 93 | 847.6 |
| 20260507003546 | 33 | 315 | 5.2 | 6.1 | 0.00 | 0.00 | 0.00 | 93 | 847.5 |
| 20260507003046 | 34 | 315 | 5.2 | 7.8 | 0.00 | 0.00 | 0.00 | 93 | 847.5 |
| 20260507002546 | 34 | 315 | 5.2 | 8.7 | 0.00 | 0.00 | 0.00 | 93 | 847.4 |
| 20260507002046 | 34 | 292 | 7.0 | 8.7 | 0.00 | 0.00 | 0.00 | 93 | 847.4 |
| 20260507001546 | 34 | 292 | 7.8 | 8.7 | 0.00 | 0.00 | 0.00 | 93 | 847.7 |
| 20260507001046 | 34 | 315 | 6.1 | 8.7 | 0.00 | 0.00 | 0.00 | 93 | 847.8 |
| 20260507000547 | 34 | 315 | 6.1 | 9.6 | 0.00 | 0.00 | 0.00 | 93 | 847.7 |
| 20260507000046 | 33 | 292 | 9.6 | 9.6 | 0.00 | 0.00 | 0.00 | 93 | 847.8 |
| 20260506235547 | 33 | 292 | 7.0 | 8.7 | 0.00 | 0.00 | 0.00 | 93 | 847.9 |
| 20260506235046 | 33 | 315 | 5.2 | 7.0 | 0.00 | 0.00 | 0.00 | 93 | 848.0 |
| 20260506234547 | 33 | 315 | 5.2 | 7.0 | 0.00 | 0.00 | 0.00 | 93 | 848.1 |
| 20260506234046 | 34 | 315 | 5.2 | 7.8 | 0.00 | 0.00 | 0.00 | 93 | 848.0 |
| 20260506234044 | 34 | 315 | 6.1 | 7.0 | 0.00 | 0.00 | 0.00 | 93 | 848.0 |
| 20260506233546 | 34 | 315 | 7.0 | 8.7 | 0.00 | 0.00 | 0.00 | 93 | 848.0 |
| 20260506233047 | 34 | 315 | 6.1 | 7.0 | 0.00 | 0.00 | 0.00 | 93 | 848.0 |
| 20260506232547 | 34 | 315 | 5.2 | 6.1 | 0.00 | 0.00 | 0.00 | 93 | 848.0 |
| 20260506232047 | 34 | 315 | 6.1 | 7.0 | 0.00 | 0.00 | 0.00 | 93 | 848.0 |
| 20260506231547 | 34 | 315 | 5.2 | 7.0 | 0.00 | 0.00 | 0.00 | 93 | 848.1 |
| 20260506231048 | 34 | 315 | 6.1 | 6.1 | 0.00 | 0.00 | 0.00 | 93 | 848.1 |
| 20260506230547 | 34 | 315 | 6.1 | 6.1 | 0.00 | 0.00 | 0.00 | 93 | 848.1 |
| 20260506230047 | 34 | 315 | 2.6 | 7.0 | 0.00 | 0.00 | 0.00 | 93 | 848.1 |
| 20260506225547 | 34 | 315 | 1.7 | 5.2 | 0.00 | 0.00 | 0.00 | 93 | 848.2 |
| 20260506225047 | 35 | 337 | 3.5 | 4.3 | 0.00 | 0.00 | 0.00 | 93 | 848.2 |
| 20260506224547 | 35 | 315 | 5.2 | 5.2 | 0.00 | 0.00 | 0.00 | 93 | 848.3 |
| 20260506224047 | 35 | 315 | 3.5 | 5.2 | 0.00 | 0.00 | 0.00 | 93 | 848.5 |
| 20260506223547 | 35 | 315 | 5.2 | 6.1 | 0.00 | 0.00 | 0.00 | 92 | 848.5 |
| 20260506223047 | 35 | 315 | 4.3 | 5.2 | 0.00 | 0.00 | 0.00 | 92 | 848.5 |
| 20260506222546 | 35 | 315 | 3.5 | 6.1 | 0.00 | 0.00 | 0.00 | 92 | 848.4 |
| 20260506222047 | 35 | 315 | 4.3 | 48.7 | 0.00 | 0.00 | 0.00 | 92 | 848.7 |
| 20260506221547 | 35 | 315 | 0.0 | 86.9 | 0.00 | 0.00 | 0.00 | 92 | 848.8 |
| 20260506221047 | 35 | 315 | 0.0 | 44.3 | 0.00 | 0.00 | 0.00 | 92 | 849.0 |
| 20260506220547 | 35 | 315 | 0.0 | 25.2 | 0.00 | 0.00 | 0.00 | 92 | 849.0 |
| 20260506220047 | 35 | 0 | 0.0 | 2.6 | 0.00 | 0.00 | 0.00 | 92 | 849.1 |
| 20260506215630 | 35 | 315 | 2.6 | 49.5 | 0.00 | 0.00 | 0.00 | 92 | 849.0 |
| 20260506215547 | 35 | 315 | 2.6 | 49.5 | 0.00 | 0.00 | 0.00 | 92 | 849.0 |
| 20260506215214 | 35 | 0 | 49.5 | 49.5 | 0.00 | 0.00 | 0.00 | 92 | 848.9 |
| 20260506215047 | 35 | 0 | 49.5 | 49.5 | 0.00 | 0.00 | 0.00 | 92 | 848.9 |
| 20260506214547 | 34 | 315 | 0.9 | 38.2 | 0.00 | 0.00 | 0.00 | 92 | 848.8 |
| 20260506214047 | 34 | 270 | 0.0 | 0.0 | 0.00 | 0.00 | 0.00 | 92 | 848.9 |
| 20260506213547 | 34 | 0 | 0.0 | 7.8 | 0.00 | 0.00 | 0.00 | 92 | 848.8 |
| 20260506213047 | 34 | 315 | 7.0 | 13.0 | 0.00 | 0.00 | 0.00 | 92 | 848.9 |
| 20260506212548 | 34 | 337 | 0.0 | 0.0 | 0.00 | 0.00 | 0.00 | 92 | 848.8 |
| 20260506212047 | 35 | 45 | 1.7 | 86.9 | 0.00 | 0.00 | 0.00 | 92 | 848.8 |
| 20260506211548 | 35 | 45 | 0.0 | 95.6 | 0.00 | 0.00 | 0.00 | 92 | 848.9 |
| 20260506211047 | 35 | 112 | 0.0 | 8.7 | 0.00 | 0.00 | 0.00 | 92 | 849.0 |
| 20260506210547 | 35 | 337 | 8.7 | 11.3 | 0.00 | 0.00 | 0.00 | 92 | 848.7 |
| 20260506210047 | 35 | 315 | 7.0 | 7.8 | 0.00 | 0.00 | 0.00 | 92 | 848.6 |
| 20260506205547 | 35 | 292 | 0.0 | 4.3 | 0.00 | 0.00 | 0.00 | 92 | 848.5 |
| 20260506205047 | 35 | 315 | 3.5 | 8.7 | 0.00 | 0.00 | 0.00 | 92 | 848.5 |
| 20260506204547 | 35 | 315 | 3.5 | 4.3 | 0.00 | 0.00 | 0.00 | 92 | 848.6 |
| 20260506204047 | 35 | 315 | 3.5 | 8.7 | 0.00 | 0.00 | 0.00 | 92 | 848.5 |
| 20260506203547 | 35 | 315 | 4.3 | 11.3 | 0.00 | 0.00 | 0.00 | 92 | 848.5 |
| 20260506203047 | 35 | 315 | 5.2 | 10.4 | 0.00 | 0.00 | 0.00 | 92 | 848.4 |
| 20260506202547 | 35 | 292 | 1.7 | 3.5 | 0.00 | 0.00 | 0.00 | 92 | 848.3 |
| 20260506202047 | 35 | 337 | 3.5 | 7.0 | 0.00 | 0.00 | 0.00 | 92 | 848.4 |
| 20260506201548 | 35 | 315 | 7.0 | 7.0 | 0.00 | 0.00 | 0.00 | 92 | 848.4 |
| 20260506201047 | 35 | 315 | 5.2 | 5.2 | 0.00 | 0.00 | 0.00 | 92 | 848.3 |
| 20260506200548 | 35 | 337 | 7.8 | 15.6 | 0.00 | 0.00 | 0.00 | 92 | 848.4 |
| 20260506200047 | 35 | 315 | 1.7 | 7.8 | 0.00 | 0.00 | 0.00 | 92 | 848.3 |
| 20260506195548 | 35 | 315 | 11.3 | 11.3 | 0.00 | 0.00 | 0.00 | 92 | 848.2 |
| 20260506195047 | 35 | 315 | 4.3 | 10.4 | 0.00 | 0.00 | 0.00 | 92 | 848.3 |
| 20260506194547 | 35 | 315 | 6.1 | 10.4 | 0.00 | 0.00 | 0.00 | 92 | 848.3 |
| 20260506194047 | 35 | 315 | 4.3 | 10.4 | 0.00 | 0.00 | 0.00 | 92 | 848.4 |
| 20260506193549 | 36 | 315 | 3.5 | 13.0 | 0.00 | 0.00 | 0.00 | 92 | 848.6 |
| 20260506193047 | 36 | 315 | 3.5 | 6.1 | 0.00 | 0.00 | 0.00 | 92 | 848.8 |
| 20260506192548 | 36 | 315 | 5.2 | 7.0 | 0.00 | 0.00 | 0.00 | 92 | 849.0 |
| 20260506192048 | 36 | 292 | 7.0 | 7.0 | 0.00 | 0.00 | 0.00 | 93 | 848.8 |
| 20260506191547 | 36 | 292 | 5.2 | 6.1 | 0.00 | 0.00 | 0.00 | 92 | 848.8 |
| 20260506191047 | 36 | 292 | 5.2 | 8.7 | 0.00 | 0.00 | 0.00 | 92 | 848.9 |
| 20260506190549 | 36 | 315 | 7.0 | 8.7 | 0.00 | 0.00 | 0.00 | 92 | 848.8 |
| 20260506190047 | 35 | 0 | 0.0 | 0.0 | 0.00 | 0.00 | 0.00 | 92 | 851.6 |
| 20260506185627 | 35 | 0 | 0.0 | 0.0 | 0.00 | 0.00 | 0.00 | 91 | 853.0 |
| 20260506185547 | 35 | 0 | 0.0 | 0.0 | 0.00 | 0.00 | 0.00 | 91 | 853.0 |
| 20260506185048 | 36 | 0 | 0.0 | 0.0 | 0.00 | 0.00 | 0.00 | 91 | 851.9 |
| 20260506184547 | 36 | 315 | 0.0 | 0.0 | 0.00 | 0.00 | 0.00 | 91 | 853.3 |
| 20260506184047 | 36 | 315 | 0.0 | 0.0 | 0.00 | 0.00 | 0.00 | 91 | 851.6 |
| 20260506183548 | 36 | 315 | 0.0 | 0.0 | 0.00 | 0.00 | 0.00 | 91 | 853.6 |
| 20260506183230 | 36 | 315 | 0.0 | 0.0 | 0.00 | 0.00 | 0.00 | 91 | 853.6 |
| 20260506183047 | 36 | 315 | 0.0 | 0.0 | 0.00 | 0.00 | 0.00 | 91 | 853.6 |
| 20260506182547 | 36 | 315 | 0.0 | 0.0 | 0.00 | 0.00 | 0.00 | 89 | 854.4 |